sat.trackr.live / text

‹ back to catalog

STARLINK-3502

NORAD 51746 · 2022-016AJ

PAYLOAD ACTIVE UNKNOWN

§ Identity

Operator
Country
US
Launch date
2022-02-21
Launch site
AFETR
Launch vehicle
Mass (kg)
RCS (m²)

Purposes: comms

External: N2YO · Heavens-Above · Gunter

§ Orbital elements

Epoch: 2026-09-20T04:17:36.376800Z

Period
94.01 min
Inclination
53.1591°
Eccentricity
0.0001198
Mean motion
15.31697868 rev/d
Perigee alt
469.9 km
Apogee alt
471.6 km
Semi-major
6,848.9 km
B*
1.9178e-5
RAAN
143.2664°
Arg perigee
99.1850°
Mean anomaly
260.9287°
Rev number
25,323

§ Raw data

STARLINK-35021 51746U 22016AJ  26263.17889325  .00000230  00000+0  19178-4 0  99902 51746  53.1591 143.2664 0001198  99.1850 260.9287 15.31697868253239

JSON: /api/v1/satellites/51746 · /tle

For live sub-satellite position, see the globe view (requires WebGL).

§ Visibility from observer

Set your observer location to see the next 7 days of passes ≥ 10°. The values pass through the URL so the page stays shareable.

No JS? Fill the form by hand. The geolocation button needs JavaScript.